Find Starlink 2605

NORAD ID: 48392 Int'l Des: 2021-038 Owner: SPXS Country: US Constellation: starlink operational
LEOCIRCULAR

实时位置

正在加载3D地球...

关于 Starlink 2605

正在加载描述...

即将过境

Passes for default location (London). Set your location on the main map for personalized predictions.

高度历史

Loading altitude history...

两行轨道根数

1 48392U 21038AR 26106.00002315 .00055463 00000-0 17870-2 0 9994
2 48392 53.1600 159.1958 0001341 82.4441 272.8450 15.31677792 5824
Epoch: Apr 16, 2026 • Age: 9 hours

当前状态

高度 471.1 km
速度 7.63 km/s
星下点 22.73°N, 12.77°W
发射日期 May 4, 2021
运行时间 4.9 years
类型 internet

技术详情

分类 Payload
质量 260.00 kg
干质量 248.00 kg
总质量 260.00 kg
长度 0.20 m
直径 2.80 m
跨度 9.00 m
形状 Box + pan
制造商 SPXS
平台类型 Starlink
阶段状态 In Orbit
所有者/国家 SPXS/US

Most Searched